owner,sensor,date,latitude,longitude,sea_surface_height_above_sea_level,qcFlag 
COMPS,ioos:station:USF.COMPS:EGK:1,2010-09-01T00:00:00Z,27.6010,-82.7510,-0.002,1111122 
COMPS,ioos:station:USF.COMPS:EGK:1,2010-09-01T00:06:00Z,27.6010,-82.7510,0.013,1111122 
COMPS,ioos:station:USF.COMPS:EGK:1,2010-09-01T00:12:00Z,27.6010,-82.7510,0.003,1111122 
COMPS,ioos:station:USF.COMPS:EGK:1,2010-09-01T00:18:00Z,27.6010,-82.7510,-0.004,1111122 
COMPS,ioos:station:USF.COMPS:EGK:1,2010-09-01T00:24:00Z,27.6010,-82.7510,0.0,1114422 
COMPS,ioos:station:USF.COMPS:EGK:1,2010-09-01T00:30:00Z,27.6010,-82.7510,0.003,1111122 
COMPS,ioos:station:USF.COMPS:EGK:1,2010-09-01T00:36:00Z,27.6010,-82.7510,0.003,1111122 
COMPS,ioos:station:USF.COMPS:EGK:1,2010-09-01T00:42:00Z,27.6010,-82.7510,0.008,1111122 
COMPS,ioos:station:USF.COMPS:EGK:1,2010-09-01T00:48:00Z,27.6010,-82.7510,0.014,1111122 
COMPS,ioos:station:USF.COMPS:EGK:1,2010-09-01T00:54:00Z,27.6010,-82.7510,0.024,1111122 
COMPS,ioos:station:USF.COMPS:EGK:1,2010-09-01T01:00:00Z,27.6010,-82.7510,0.004,1111122 
COMPS,ioos:station:USF.COMPS:EGK:1,2010-09-01T01:06:00Z,27.6010,-82.7510,0.012,1111122 
COMPS,ioos:station:USF.COMPS:EGK:1,2010-09-01T01:12:00Z,27.6010,-82.7510,0.006,1111122 
COMPS,ioos:station:USF.COMPS:EGK:1,2010-09-01T01:18:00Z,27.6010,-82.7510,-0.002,1111122 
COMPS,ioos:station:USF.COMPS:EGK:1,2010-09-01T01:24:00Z,27.6010,-82.7510,0.006,1111122 
COMPS,ioos:station:USF.COMPS:EGK:1,2010-09-01T01:30:00Z,27.6010,-82.7510,0.009,1111122 
COMPS,ioos:station:USF.COMPS:EGK:1,2010-09-01T01:36:00Z,27.6010,-82.7510,0.007,1111122 
COMPS,ioos:station:USF.COMPS:EGK:1,2010-09-01T01:42:00Z,27.6010,-82.7510,0.008,1111122 
COMPS,ioos:station:USF.COMPS:EGK:1,2010-09-01T01:48:00Z,27.6010,-82.7510,0.002,1111122 
COMPS,ioos:station:USF.COMPS:EGK:1,2010-09-01T01:54:00Z,27.6010,-82.7510,0.001,1111122 
COMPS,ioos:station:USF.COMPS:EGK:1,2010-09-01T15:00:00Z,27.6010,-82.7510,-0.17,1111122 
COMPS,ioos:station:USF.COMPS:EGK:1,2010-09-01T15:06:00Z,27.6010,-82.7510,-0.183,1111122 
COMPS,ioos:station:USF.COMPS:EGK:1,2010-09-01T15:12:00Z,27.6010,-82.7510,-0.186,1111122 
COMPS,ioos:station:USF.COMPS:EGK:1,2010-09-01T15:18:00Z,27.6010,-82.7510,-0.196,1111122 
COMPS,ioos:station:USF.COMPS:EGK:1,2010-09-01T15:24:00Z,27.6010,-82.7510,-0.208,1111122 
COMPS,ioos:station:USF.COMPS:EGK:1,2010-09-01T15:30:00Z,27.6010,-82.7510,-0.205,1111122 
COMPS,ioos:station:USF.COMPS:EGK:1,2010-09-01T15:36:00Z,27.6010,-82.7510,-0.214,1111122 
COMPS,ioos:station:USF.COMPS:EGK:1,2010-09-01T15:42:00Z,27.6010,-82.7510,-0.217,1111122 
COMPS,ioos:station:USF.COMPS:EGK:1,2010-09-01T15:48:00Z,27.6010,-82.7510,-0.221,1111122 
COMPS,ioos:station:USF.COMPS:EGK:1,2010-09-01T15:54:00Z,27.6010,-82.7510,-0.227,1111122 
COMPS,ioos:station:USF.COMPS:EGK:1,2010-09-01T16:00:00Z,27.6010,-82.7510,-0.233,1111122 
COMPS,ioos:station:USF.COMPS:EGK:1,2010-09-01T16:06:00Z,27.6010,-82.7510,-0.236,1111122 
COMPS,ioos:station:USF.COMPS:EGK:1,2010-09-01T16:12:00Z,27.6010,-82.7510,-0.229,1111122 
COMPS,ioos:station:USF.COMPS:EGK:1,2010-09-01T16:18:00Z,27.6010,-82.7510,-0.232,1111122 
COMPS,ioos:station:USF.COMPS:EGK:1,2010-09-01T16:24:00Z,27.6010,-82.7510,-0.227,1111122 
COMPS,ioos:station:USF.COMPS:EGK:1,2010-09-01T16:30:00Z,27.6010,-82.7510,-0.238,1111122 
COMPS,ioos:station:USF.COMPS:EGK:1,2010-09-01T16:36:00Z,27.6010,-82.7510,-0.241,1111122 
COMPS,ioos:station:USF.COMPS:EGK:1,2010-09-01T16:42:00Z,27.6010,-82.7510,-0.241,1111122 
COMPS,ioos:station:USF.COMPS:EGK:1,2010-09-01T16:48:00Z,27.6010,-82.7510,-0.244,1111122 
COMPS,ioos:station:USF.COMPS:EGK:1,2010-09-01T16:54:00Z,27.6010,-82.7510,-0.244,1111122 
COMPS,ioos:station:USF.COMPS:EGK:1,2010-09-01T17:00:00Z,27.6010,-82.7510,-0.246,1111122 
COMPS,ioos:station:USF.COMPS:EGK:1,2010-09-01T17:06:00Z,27.6010,-82.7510,-0.246,1111122 
COMPS,ioos:station:USF.COMPS:EGK:1,2010-09-01T17:12:00Z,27.6010,-82.7510,-0.25,1111122 
COMPS,ioos:station:USF.COMPS:EGK:1,2010-09-01T17:18:00Z,27.6010,-82.7510,-0.255,1111122 
COMPS,ioos:station:USF.COMPS:EGK:1,2010-09-01T17:24:00Z,27.6010,-82.7510,-0.248,1111122 
COMPS,ioos:station:USF.COMPS:EGK:1,2010-09-01T17:30:00Z,27.6010,-82.7510,-0.244,1111122 
COMPS,ioos:station:USF.COMPS:EGK:1,2010-09-01T17:36:00Z,27.6010,-82.7510,-0.233,1111122 
COMPS,ioos:station:USF.COMPS:EGK:1,2010-09-01T17:42:00Z,27.6010,-82.7510,-0.252,1111122 
COMPS,ioos:station:USF.COMPS:EGK:1,2010-09-01T17:48:00Z,27.6010,-82.7510,-0.242,1111122 
COMPS,ioos:station:USF.COMPS:EGK:1,2010-09-01T17:54:00Z,27.6010,-82.7510,-0.234,1111122 
COMPS,ioos:station:USF.COMPS:EGK:1,2010-09-01T18:00:00Z,27.6010,-82.7510,-0.23,1111122 
COMPS,ioos:station:USF.COMPS:EGK:1,2010-09-01T18:06:00Z,27.6010,-82.7510,-0.244,1111122 
COMPS,ioos:station:USF.COMPS:EGK:1,2010-09-01T18:12:00Z,27.6010,-82.7510,-0.235,1111122 
COMPS,ioos:station:USF.COMPS:EGK:1,2010-09-01T18:18:00Z,27.6010,-82.7510,-0.228,1111122 
COMPS,ioos:station:USF.COMPS:EGK:1,2010-09-01T18:24:00Z,27.6010,-82.7510,-0.215,1111122 
COMPS,ioos:station:USF.COMPS:EGK:1,2010-09-01T18:30:00Z,27.6010,-82.7510,-0.216,1111122 
COMPS,ioos:station:USF.COMPS:EGK:1,2010-09-01T18:36:00Z,27.6010,-82.7510,-0.214,1111122 
COMPS,ioos:station:USF.COMPS:EGK:1,2010-09-01T18:42:00Z,27.6010,-82.7510,-0.201,1111122 
COMPS,ioos:station:USF.COMPS:EGK:1,2010-09-01T18:48:00Z,27.6010,-82.7510,-0.199,1111122 
COMPS,ioos:station:USF.COMPS:EGK:1,2010-09-01T18:54:00Z,27.6010,-82.7510,-0.193,1111122 
COMPS,ioos:station:USF.COMPS:EGK:1,2010-09-01T19:00:00Z,27.6010,-82.7510,-0.19,1111122 
COMPS,ioos:station:USF.COMPS:EGK:1,2010-09-01T19:06:00Z,27.6010,-82.7510,-0.181,1111122 
COMPS,ioos:station:USF.COMPS:EGK:1,2010-09-01T19:12:00Z,27.6010,-82.7510,-0.185,1111122 
COMPS,ioos:station:USF.COMPS:EGK:1,2010-09-01T19:18:00Z,27.6010,-82.7510,-0.18,1111122 
COMPS,ioos:station:USF.COMPS:EGK:1,2010-09-01T19:24:00Z,27.6010,-82.7510,-0.168,1111122 
COMPS,ioos:station:USF.COMPS:EGK:1,2010-09-01T19:30:00Z,27.6010,-82.7510,-0.16,1111122 
COMPS,ioos:station:USF.COMPS:EGK:1,2010-09-01T19:36:00Z,27.6010,-82.7510,-0.145,1111122 
COMPS,ioos:station:USF.COMPS:EGK:1,2010-09-01T19:42:00Z,27.6010,-82.7510,-0.133,1111122 
COMPS,ioos:station:USF.COMPS:EGK:1,2010-09-01T19:48:00Z,27.6010,-82.7510,-0.133,1111122 
COMPS,ioos:station:USF.COMPS:EGK:1,2010-09-01T19:54:00Z,27.6010,-82.7510,-0.129,1111122 
COMPS,ioos:station:USF.COMPS:EGK:1,2010-09-01T20:00:00Z,27.6010,-82.7510,-0.124,1111122 
COMPS,ioos:station:USF.COMPS:EGK:1,2010-09-01T20:06:00Z,27.6010,-82.7510,-0.121,1111122 
COMPS,ioos:station:USF.COMPS:EGK:1,2010-09-01T20:12:00Z,27.6010,-82.7510,-0.116,1111122 
COMPS,ioos:station:USF.COMPS:EGK:1,2010-09-01T20:18:00Z,27.6010,-82.7510,-0.114,1111122 
COMPS,ioos:station:USF.COMPS:EGK:1,2010-09-01T20:24:00Z,27.6010,-82.7510,-0.103,1111122 
COMPS,ioos:station:USF.COMPS:EGK:1,2010-09-01T20:30:00Z,27.6010,-82.7510,-0.095,1111122 
COMPS,ioos:station:USF.COMPS:EGK:1,2010-09-01T20:36:00Z,27.6010,-82.7510,-0.085,1111122 
COMPS,ioos:station:USF.COMPS:EGK:1,2010-09-01T20:42:00Z,27.6010,-82.7510,-0.084,1111122 
COMPS,ioos:station:USF.COMPS:EGK:1,2010-09-01T20:48:00Z,27.6010,-82.7510,-0.087,1111122 
COMPS,ioos:station:USF.COMPS:EGK:1,2010-09-01T20:54:00Z,27.6010,-82.7510,-0.09,1111122 
COMPS,ioos:station:USF.COMPS:EGK:1,2010-09-01T21:00:00Z,27.6010,-82.7510,-0.087,1111122 
COMPS,ioos:station:USF.COMPS:EGK:1,2010-09-01T21:06:00Z,27.6010,-82.7510,-0.084,1111122 
COMPS,ioos:station:USF.COMPS:EGK:1,2010-09-01T21:12:00Z,27.6010,-82.7510,-0.07,1111122 
COMPS,ioos:station:USF.COMPS:EGK:1,2010-09-01T21:18:00Z,27.6010,-82.7510,-0.051,1111122 
COMPS,ioos:station:USF.COMPS:EGK:1,2010-09-01T21:24:00Z,27.6010,-82.7510,-0.048,1111122 
COMPS,ioos:station:USF.COMPS:EGK:1,2010-09-01T21:30:00Z,27.6010,-82.7510,-0.044,1111122 
COMPS,ioos:station:USF.COMPS:EGK:1,2010-09-01T21:36:00Z,27.6010,-82.7510,-0.056,1111122 
COMPS,ioos:station:USF.COMPS:EGK:1,2010-09-01T21:42:00Z,27.6010,-82.7510,-0.052,1111122 
COMPS,ioos:station:USF.COMPS:EGK:1,2010-09-01T21:48:00Z,27.6010,-82.7510,-0.056,1111122 
COMPS,ioos:station:USF.COMPS:EGK:1,2010-09-01T21:54:00Z,27.6010,-82.7510,-0.048,1111122 
COMPS,ioos:station:USF.COMPS:EGK:1,2010-09-01T22:00:00Z,27.6010,-82.7510,-0.032,1111122 
COMPS,ioos:station:USF.COMPS:EGK:1,2010-09-01T22:06:00Z,27.6010,-82.7510,-0.03,1111122 
COMPS,ioos:station:USF.COMPS:EGK:1,2010-09-01T22:12:00Z,27.6010,-82.7510,-0.03,1111122 
COMPS,ioos:station:USF.COMPS:EGK:1,2010-09-01T22:18:00Z,27.6010,-82.7510,-0.028,1111122 
COMPS,ioos:station:USF.COMPS:EGK:1,2010-09-01T22:24:00Z,27.6010,-82.7510,-0.028,1111122 
COMPS,ioos:station:USF.COMPS:EGK:1,2010-09-01T22:30:00Z,27.6010,-82.7510,-0.023,1111122 
COMPS,ioos:station:USF.COMPS:EGK:1,2010-09-01T22:36:00Z,27.6010,-82.7510,-0.009,1111122 
COMPS,ioos:station:USF.COMPS:EGK:1,2010-09-01T22:42:00Z,27.6010,-82.7510,-0.014,1111122 
COMPS,ioos:station:USF.COMPS:EGK:1,2010-09-01T22:48:00Z,27.6010,-82.7510,-0.013,1111122 
COMPS,ioos:station:USF.COMPS:EGK:1,2010-09-01T22:54:00Z,27.6010,-82.7510,-0.009,1111122 
COMPS,ioos:station:USF.COMPS:EGK:1,2010-09-01T23:00:00Z,27.6010,-82.7510,-0.011,1111122 
COMPS,ioos:station:USF.COMPS:EGK:1,2010-09-01T23:06:00Z,27.6010,-82.7510,-0.006,1111122 
COMPS,ioos:station:USF.COMPS:EGK:1,2010-09-01T23:12:00Z,27.6010,-82.7510,0.003,1111122 
COMPS,ioos:station:USF.COMPS:EGK:1,2010-09-01T23:18:00Z,27.6010,-82.7510,0.002,1111122 
COMPS,ioos:station:USF.COMPS:EGK:1,2010-09-01T23:24:00Z,27.6010,-82.7510,0.007,1111122 
COMPS,ioos:station:USF.COMPS:EGK:1,2010-09-01T23:30:00Z,27.6010,-82.7510,0.011,1111122 
COMPS,ioos:station:USF.COMPS:EGK:1,2010-09-01T23:36:00Z,27.6010,-82.7510,0.006,1111122 
COMPS,ioos:station:USF.COMPS:EGK:1,2010-09-01T23:42:00Z,27.6010,-82.7510,0.007,1111122 
COMPS,ioos:station:USF.COMPS:EGK:1,2010-09-01T23:48:00Z,27.6010,-82.7510,0.012,1111122 
COMPS,ioos:station:USF.COMPS:EGK:1,2010-09-01T23:54:00Z,27.6010,-82.7510,0.015,1111122 
COMPS,ioos:station:USF.COMPS:EGK:1,2010-09-02T00:00:00Z,27.6010,-82.7510,0.016,1111122 
COMPS,ioos:station:USF.COMPS:EGK:1,2010-09-02T00:06:00Z,27.6010,-82.7510,0.017,1111122 
COMPS,ioos:station:USF.COMPS:EGK:1,2010-09-02T00:12:00Z,27.6010,-82.7510,0.022,1111122 
COMPS,ioos:station:USF.COMPS:EGK:1,2010-09-02T00:18:00Z,27.6010,-82.7510,0.032,1111122 
COMPS,ioos:station:USF.COMPS:EGK:1,2010-09-02T00:24:00Z,27.6010,-82.7510,0.031,1111122 
COMPS,ioos:station:USF.COMPS:EGK:1,2010-09-02T00:30:00Z,27.6010,-82.7510,0.034,1111122 
COMPS,ioos:station:USF.COMPS:EGK:1,2010-09-02T00:36:00Z,27.6010,-82.7510,0.031,1111122 
COMPS,ioos:station:USF.COMPS:EGK:1,2010-09-02T00:42:00Z,27.6010,-82.7510,0.026,1111122 
COMPS,ioos:station:USF.COMPS:EGK:1,2010-09-02T00:48:00Z,27.6010,-82.7510,0.03,1111122 
COMPS,ioos:station:USF.COMPS:EGK:1,2010-09-02T00:54:00Z,27.6010,-82.7510,0.034,1111122 
COMPS,ioos:station:USF.COMPS:EGK:1,2010-09-02T01:00:00Z,27.6010,-82.7510,0.029,1111122 
COMPS,ioos:station:USF.COMPS:EGK:1,2010-09-02T01:06:00Z,27.6010,-82.7510,0.034,1111122 
COMPS,ioos:station:USF.COMPS:EGK:1,2010-09-02T01:12:00Z,27.6010,-82.7510,0.038,1111122 
COMPS,ioos:station:USF.COMPS:EGK:1,2010-09-02T01:18:00Z,27.6010,-82.7510,0.039,1111122 
COMPS,ioos:station:USF.COMPS:EGK:1,2010-09-02T01:24:00Z,27.6010,-82.7510,0.04,1111122 
COMPS,ioos:station:USF.COMPS:EGK:1,2010-09-02T01:30:00Z,27.6010,-82.7510,0.03,1111122 
COMPS,ioos:station:USF.COMPS:EGK:1,2010-09-02T01:36:00Z,27.6010,-82.7510,0.022,1111122 
COMPS,ioos:station:USF.COMPS:EGK:1,2010-09-02T01:42:00Z,27.6010,-82.7510,0.014,1111122 
COMPS,ioos:station:USF.COMPS:EGK:1,2010-09-02T01:48:00Z,27.6010,-82.7510,0.021,1111122 
COMPS,ioos:station:USF.COMPS:EGK:1,2010-09-02T01:54:00Z,27.6010,-82.7510,0.031,1111122 
COMPS,ioos:station:USF.COMPS:EGK:1,2010-09-02T02:00:00Z,27.6010,-82.7510,0.032,1111122 
COMPS,ioos:station:USF.COMPS:EGK:1,2010-09-02T02:06:00Z,27.6010,-82.7510,0.031,1111122 
COMPS,ioos:station:USF.COMPS:EGK:1,2010-09-02T02:12:00Z,27.6010,-82.7510,0.028,1111122 
COMPS,ioos:station:USF.COMPS:EGK:1,2010-09-02T02:18:00Z,27.6010,-82.7510,0.032,1111122 
COMPS,ioos:station:USF.COMPS:EGK:1,2010-09-02T02:24:00Z,27.6010,-82.7510,0.024,1111122 
COMPS,ioos:station:USF.COMPS:EGK:1,2010-09-02T02:30:00Z,27.6010,-82.7510,0.029,1111122 
COMPS,ioos:station:USF.COMPS:EGK:1,2010-09-02T02:36:00Z,27.6010,-82.7510,0.029,1111122 
COMPS,ioos:station:USF.COMPS:EGK:1,2010-09-02T02:42:00Z,27.6010,-82.7510,0.031,1111122 
COMPS,ioos:station:USF.COMPS:EGK:1,2010-09-02T02:48:00Z,27.6010,-82.7510,0.027,1111122 
COMPS,ioos:station:USF.COMPS:EGK:1,2010-09-02T02:54:00Z,27.6010,-82.7510,0.042,1111122 
COMPS,ioos:station:USF.COMPS:EGK:1,2010-09-02T03:00:00Z,27.6010,-82.7510,0.053,1111122 
COMPS,ioos:station:USF.COMPS:EGK:1,2010-09-02T03:06:00Z,27.6010,-82.7510,0.049,1111122 
COMPS,ioos:station:USF.COMPS:EGK:1,2010-09-02T03:12:00Z,27.6010,-82.7510,0.07,1111122 
COMPS,ioos:station:USF.COMPS:EGK:1,2010-09-02T03:18:00Z,27.6010,-82.7510,0.057,1111122 
COMPS,ioos:station:USF.COMPS:EGK:1,2010-09-02T03:24:00Z,27.6010,-82.7510,0.055,1111122 
COMPS,ioos:station:USF.COMPS:EGK:1,2010-09-02T03:30:00Z,27.6010,-82.7510,0.062,1111122 
COMPS,ioos:station:USF.COMPS:EGK:1,2010-09-02T03:36:00Z,27.6010,-82.7510,0.067,1111122 
COMPS,ioos:station:USF.COMPS:EGK:1,2010-09-02T03:42:00Z,27.6010,-82.7510,0.049,1111122 
COMPS,ioos:station:USF.COMPS:EGK:1,2010-09-02T03:48:00Z,27.6010,-82.7510,0.068,1111122 
COMPS,ioos:station:USF.COMPS:EGK:1,2010-09-02T03:54:00Z,27.6010,-82.7510,0.079,1111122 
COMPS,ioos:station:USF.COMPS:EGK:1,2010-09-02T04:00:00Z,27.6010,-82.7510,0.079,1111122 
COMPS,ioos:station:USF.COMPS:EGK:1,2010-09-02T04:06:00Z,27.6010,-82.7510,0.085,1111122 
COMPS,ioos:station:USF.COMPS:EGK:1,2010-09-02T04:12:00Z,27.6010,-82.7510,0.098,1111122 
COMPS,ioos:station:USF.COMPS:EGK:1,2010-09-02T04:18:00Z,27.6010,-82.7510,0.102,1111122 
COMPS,ioos:station:USF.COMPS:EGK:1,2010-09-02T04:24:00Z,27.6010,-82.7510,0.108,1111122 
COMPS,ioos:station:USF.COMPS:EGK:1,2010-09-02T04:30:00Z,27.6010,-82.7510,0.121,1111122 
COMPS,ioos:station:USF.COMPS:EGK:1,2010-09-02T04:36:00Z,27.6010,-82.7510,0.118,1111122 
COMPS,ioos:station:USF.COMPS:EGK:1,2010-09-02T04:42:00Z,27.6010,-82.7510,0.128,1111122 
COMPS,ioos:station:USF.COMPS:EGK:1,2010-09-02T04:48:00Z,27.6010,-82.7510,0.132,1111122 
COMPS,ioos:station:USF.COMPS:EGK:1,2010-09-02T04:54:00Z,27.6010,-82.7510,0.135,1111122 
COMPS,ioos:station:USF.COMPS:EGK:1,2010-09-02T05:00:00Z,27.6010,-82.7510,0.144,1111122 
COMPS,ioos:station:USF.COMPS:EGK:1,2010-09-02T05:06:00Z,27.6010,-82.7510,0.154,1111122 
COMPS,ioos:station:USF.COMPS:EGK:1,2010-09-02T05:12:00Z,27.6010,-82.7510,0.166,1111122 
COMPS,ioos:station:USF.COMPS:EGK:1,2010-09-02T05:18:00Z,27.6010,-82.7510,0.173,1111122 
COMPS,ioos:station:USF.COMPS:EGK:1,2010-09-02T05:24:00Z,27.6010,-82.7510,0.178,1111122 
COMPS,ioos:station:USF.COMPS:EGK:1,2010-09-02T05:30:00Z,27.6010,-82.7510,0.186,1111122 
COMPS,ioos:station:USF.COMPS:EGK:1,2010-09-02T05:36:00Z,27.6010,-82.7510,0.187,1111122 
COMPS,ioos:station:USF.COMPS:EGK:1,2010-09-02T05:42:00Z,27.6010,-82.7510,0.182,1111122 
COMPS,ioos:station:USF.COMPS:EGK:1,2010-09-02T05:48:00Z,27.6010,-82.7510,0.194,1111122 
COMPS,ioos:station:USF.COMPS:EGK:1,2010-09-02T05:54:00Z,27.6010,-82.7510,0.193,1111122 
COMPS,ioos:station:USF.COMPS:EGK:1,2010-09-02T06:00:00Z,27.6010,-82.7510,0.198,1111122 
COMPS,ioos:station:USF.COMPS:EGK:1,2010-09-02T06:06:00Z,27.6010,-82.7510,0.2,1111122 
COMPS,ioos:station:USF.COMPS:EGK:1,2010-09-02T06:12:00Z,27.6010,-82.7510,0.208,1111122 
COMPS,ioos:station:USF.COMPS:EGK:1,2010-09-02T06:18:00Z,27.6010,-82.7510,0.208,1111122 
COMPS,ioos:station:USF.COMPS:EGK:1,2010-09-02T06:24:00Z,27.6010,-82.7510,0.221,1111122 
COMPS,ioos:station:USF.COMPS:EGK:1,2010-09-02T06:30:00Z,27.6010,-82.7510,0.225,1111122 
COMPS,ioos:station:USF.COMPS:EGK:1,2010-09-02T06:36:00Z,27.6010,-82.7510,0.233,1111122 
COMPS,ioos:station:USF.COMPS:EGK:1,2010-09-02T06:42:00Z,27.6010,-82.7510,0.235,1111122 
COMPS,ioos:station:USF.COMPS:EGK:1,2010-09-02T06:48:00Z,27.6010,-82.7510,0.246,1111122 
COMPS,ioos:station:USF.COMPS:EGK:1,2010-09-02T06:54:00Z,27.6010,-82.7510,0.244,1111122 
COMPS,ioos:station:USF.COMPS:EGK:1,2010-09-02T07:00:00Z,27.6010,-82.7510,0.244,1111122 
COMPS,ioos:station:USF.COMPS:EGK:1,2010-09-02T07:06:00Z,27.6010,-82.7510,0.257,1111122 
COMPS,ioos:station:USF.COMPS:EGK:1,2010-09-02T07:12:00Z,27.6010,-82.7510,0.272,1111122 
COMPS,ioos:station:USF.COMPS:EGK:1,2010-09-02T07:18:00Z,27.6010,-82.7510,0.277,1111122 
COMPS,ioos:station:USF.COMPS:EGK:1,2010-09-02T07:24:00Z,27.6010,-82.7510,0.274,1111122 
COMPS,ioos:station:USF.COMPS:EGK:1,2010-09-02T07:30:00Z,27.6010,-82.7510,0.277,1111122 
COMPS,ioos:station:USF.COMPS:EGK:1,2010-09-02T07:36:00Z,27.6010,-82.7510,0.283,1111122 
COMPS,ioos:station:USF.COMPS:EGK:1,2010-09-02T07:42:00Z,27.6010,-82.7510,0.28,1111122 
COMPS,ioos:station:USF.COMPS:EGK:1,2010-09-02T07:48:00Z,27.6010,-82.7510,0.294,1111122 
COMPS,ioos:station:USF.COMPS:EGK:1,2010-09-02T07:54:00Z,27.6010,-82.7510,0.277,1111122 
COMPS,ioos:station:USF.COMPS:EGK:1,2010-09-02T08:00:00Z,27.6010,-82.7510,0.293,1111122 
COMPS,ioos:station:USF.COMPS:EGK:1,2010-09-02T08:06:00Z,27.6010,-82.7510,0.298,1111122 
COMPS,ioos:station:USF.COMPS:EGK:1,2010-09-02T08:12:00Z,27.6010,-82.7510,0.297,1111122 
COMPS,ioos:station:USF.COMPS:EGK:1,2010-09-02T08:18:00Z,27.6010,-82.7510,0.3,1111122 
COMPS,ioos:station:USF.COMPS:EGK:1,2010-09-02T08:24:00Z,27.6010,-82.7510,0.31,1111122 
COMPS,ioos:station:USF.COMPS:EGK:1,2010-09-02T08:30:00Z,27.6010,-82.7510,0.322,1111122 
COMPS,ioos:station:USF.COMPS:EGK:1,2010-09-02T08:36:00Z,27.6010,-82.7510,0.337,1111122 
COMPS,ioos:station:USF.COMPS:EGK:1,2010-09-02T08:42:00Z,27.6010,-82.7510,0.344,1111122 
COMPS,ioos:station:USF.COMPS:EGK:1,2010-09-02T08:48:00Z,27.6010,-82.7510,0.349,1111122 
COMPS,ioos:station:USF.COMPS:EGK:1,2010-09-02T08:54:00Z,27.6010,-82.7510,0.341,1111122 
COMPS,ioos:station:USF.COMPS:EGK:1,2010-09-02T09:00:00Z,27.6010,-82.7510,0.347,1111122 
COMPS,ioos:station:USF.COMPS:EGK:1,2010-09-02T09:06:00Z,27.6010,-82.7510,0.362,1111122 
COMPS,ioos:station:USF.COMPS:EGK:1,2010-09-02T09:12:00Z,27.6010,-82.7510,0.367,1111122 
COMPS,ioos:station:USF.COMPS:EGK:1,2010-09-02T09:18:00Z,27.6010,-82.7510,0.361,1111122 
COMPS,ioos:station:USF.COMPS:EGK:1,2010-09-02T09:24:00Z,27.6010,-82.7510,0.365,1111122 
COMPS,ioos:station:USF.COMPS:EGK:1,2010-09-02T09:30:00Z,27.6010,-82.7510,0.368,1111122 
COMPS,ioos:station:USF.COMPS:EGK:1,2010-09-02T09:36:00Z,27.6010,-82.7510,0.373,1111122 
COMPS,ioos:station:USF.COMPS:EGK:1,2010-09-02T09:42:00Z,27.6010,-82.7510,0.373,1111122 
COMPS,ioos:station:USF.COMPS:EGK:1,2010-09-02T09:48:00Z,27.6010,-82.7510,0.363,1111122 
COMPS,ioos:station:USF.COMPS:EGK:1,2010-09-02T09:54:00Z,27.6010,-82.7510,0.363,1111122 
COMPS,ioos:station:USF.COMPS:EGK:1,2010-09-02T10:00:00Z,27.6010,-82.7510,0.352,1111122 
COMPS,ioos:station:USF.COMPS:EGK:1,2010-09-02T10:06:00Z,27.6010,-82.7510,0.368,1111122 
COMPS,ioos:station:USF.COMPS:EGK:1,2010-09-02T10:12:00Z,27.6010,-82.7510,0.364,1111122 
COMPS,ioos:station:USF.COMPS:EGK:1,2010-09-02T10:18:00Z,27.6010,-82.7510,0.361,1111122 
COMPS,ioos:station:USF.COMPS:EGK:1,2010-09-02T10:24:00Z,27.6010,-82.7510,0.351,1111122 
COMPS,ioos:station:USF.COMPS:EGK:1,2010-09-02T10:30:00Z,27.6010,-82.7510,0.348,1111122 
COMPS,ioos:station:USF.COMPS:EGK:1,2010-09-02T10:36:00Z,27.6010,-82.7510,0.353,1111122 
COMPS,ioos:station:USF.COMPS:EGK:1,2010-09-02T10:42:00Z,27.6010,-82.7510,0.351,1111122 
COMPS,ioos:station:USF.COMPS:EGK:1,2010-09-02T10:48:00Z,27.6010,-82.7510,0.351,1111122 
COMPS,ioos:station:USF.COMPS:EGK:1,2010-09-02T10:54:00Z,27.6010,-82.7510,0.344,1111122 
COMPS,ioos:station:USF.COMPS:EGK:1,2010-09-02T11:00:00Z,27.6010,-82.7510,0.335,1111122 
COMPS,ioos:station:USF.COMPS:EGK:1,2010-09-02T11:06:00Z,27.6010,-82.7510,0.322,1111122 
COMPS,ioos:station:USF.COMPS:EGK:1,2010-09-02T11:12:00Z,27.6010,-82.7510,0.314,1111122 
COMPS,ioos:station:USF.COMPS:EGK:1,2010-09-02T11:18:00Z,27.6010,-82.7510,0.314,1111122 
COMPS,ioos:station:USF.COMPS:EGK:1,2010-09-02T11:24:00Z,27.6010,-82.7510,0.32,1111122 
COMPS,ioos:station:USF.COMPS:EGK:1,2010-09-02T11:30:00Z,27.6010,-82.7510,0.331,1111122 
COMPS,ioos:station:USF.COMPS:EGK:1,2010-09-02T11:36:00Z,27.6010,-82.7510,0.325,1111122 
COMPS,ioos:station:USF.COMPS:EGK:1,2010-09-02T11:42:00Z,27.6010,-82.7510,0.316,1111122 
COMPS,ioos:station:USF.COMPS:EGK:1,2010-09-02T11:48:00Z,27.6010,-82.7510,0.309,1111122 
COMPS,ioos:station:USF.COMPS:EGK:1,2010-09-02T11:54:00Z,27.6010,-82.7510,0.314,1111122 
COMPS,ioos:station:USF.COMPS:EGK:1,2010-09-02T12:00:00Z,27.6010,-82.7510,0.317,1111122 
COMPS,ioos:station:USF.COMPS:EGK:1,2010-09-02T12:06:00Z,27.6010,-82.7510,0.307,1111122 
COMPS,ioos:station:USF.COMPS:EGK:1,2010-09-02T12:12:00Z,27.6010,-82.7510,0.292,1111122 
COMPS,ioos:station:USF.COMPS:EGK:1,2010-09-02T12:18:00Z,27.6010,-82.7510,0.274,1111122 
COMPS,ioos:station:USF.COMPS:EGK:1,2010-09-02T12:24:00Z,27.6010,-82.7510,0.269,1111122 
COMPS,ioos:station:USF.COMPS:EGK:1,2010-09-02T12:30:00Z,27.6010,-82.7510,0.267,1111122 
COMPS,ioos:station:USF.COMPS:EGK:1,2010-09-02T12:36:00Z,27.6010,-82.7510,0.265,1111122 
COMPS,ioos:station:USF.COMPS:EGK:1,2010-09-02T12:42:00Z,27.6010,-82.7510,0.249,1111122 
COMPS,ioos:station:USF.COMPS:EGK:1,2010-09-02T12:48:00Z,27.6010,-82.7510,0.238,1111122 
COMPS,ioos:station:USF.COMPS:EGK:1,2010-09-02T12:54:00Z,27.6010,-82.7510,0.224,1111122 
COMPS,ioos:station:USF.COMPS:EGK:1,2010-09-02T13:00:00Z,27.6010,-82.7510,0.207,1111122 
COMPS,ioos:station:USF.COMPS:EGK:1,2010-09-02T13:06:00Z,27.6010,-82.7510,0.2,1111122 
COMPS,ioos:station:USF.COMPS:EGK:1,2010-09-02T13:12:00Z,27.6010,-82.7510,0.188,1111122 
COMPS,ioos:station:USF.COMPS:EGK:1,2010-09-02T13:18:00Z,27.6010,-82.7510,0.192,1111122 
COMPS,ioos:station:USF.COMPS:EGK:1,2010-09-02T13:24:00Z,27.6010,-82.7510,0.176,1111122 
COMPS,ioos:station:USF.COMPS:EGK:1,2010-09-02T13:30:00Z,27.6010,-82.7510,0.168,1111122 
COMPS,ioos:station:USF.COMPS:EGK:1,2010-09-02T13:36:00Z,27.6010,-82.7510,0.159,1111122 
COMPS,ioos:station:USF.COMPS:EGK:1,2010-09-02T13:42:00Z,27.6010,-82.7510,0.151,1111122 
COMPS,ioos:station:USF.COMPS:EGK:1,2010-09-02T13:48:00Z,27.6010,-82.7510,0.129,1111122 
COMPS,ioos:station:USF.COMPS:EGK:1,2010-09-02T13:54:00Z,27.6010,-82.7510,0.111,1111122 
COMPS,ioos:station:USF.COMPS:EGK:1,2010-09-02T14:00:00Z,27.6010,-82.7510,0.101,1111122 
COMPS,ioos:station:USF.COMPS:EGK:1,2010-09-02T14:06:00Z,27.6010,-82.7510,0.093,1111122 
COMPS,ioos:station:USF.COMPS:EGK:1,2010-09-02T14:12:00Z,27.6010,-82.7510,0.096,1111122 
COMPS,ioos:station:USF.COMPS:EGK:1,2010-09-02T14:18:00Z,27.6010,-82.7510,0.085,1111122 
COMPS,ioos:station:USF.COMPS:EGK:1,2010-09-02T14:24:00Z,27.6010,-82.7510,0.063,1111122 
COMPS,ioos:station:USF.COMPS:EGK:1,2010-09-02T14:30:00Z,27.6010,-82.7510,0.047,1111122 
COMPS,ioos:station:USF.COMPS:EGK:1,2010-09-02T14:36:00Z,27.6010,-82.7510,0.035,1111122 
COMPS,ioos:station:USF.COMPS:EGK:1,2010-09-02T14:42:00Z,27.6010,-82.7510,0.021,1111122 
COMPS,ioos:station:USF.COMPS:EGK:1,2010-09-02T14:48:00Z,27.6010,-82.7510,0.009,1111122 
COMPS,ioos:station:USF.COMPS:EGK:1,2010-09-02T14:54:00Z,27.6010,-82.7510,0.0,1114422 
COMPS,ioos:station:USF.COMPS:EGK:1,2010-09-02T15:00:00Z,27.6010,-82.7510,-0.014,1111122 
COMPS,ioos:station:USF.COMPS:EGK:1,2010-09-02T15:06:00Z,27.6010,-82.7510,-0.031,1111122 
COMPS,ioos:station:USF.COMPS:EGK:1,2010-09-02T15:12:00Z,27.6010,-82.7510,-0.044,1111122 
COMPS,ioos:station:USF.COMPS:EGK:1,2010-09-02T15:18:00Z,27.6010,-82.7510,-0.053,1111122 
COMPS,ioos:station:USF.COMPS:EGK:1,2010-09-02T15:24:00Z,27.6010,-82.7510,-0.058,1111122 
COMPS,ioos:station:USF.COMPS:EGK:1,2010-09-02T15:30:00Z,27.6010,-82.7510,-0.059,1111122 
COMPS,ioos:station:USF.COMPS:EGK:1,2010-09-02T15:36:00Z,27.6010,-82.7510,-0.061,1111122 
COMPS,ioos:station:USF.COMPS:EGK:1,2010-09-02T15:42:00Z,27.6010,-82.7510,-0.046,1111122 
COMPS,ioos:station:USF.COMPS:EGK:1,2010-09-02T15:48:00Z,27.6010,-82.7510,-0.065,1111122 
COMPS,ioos:station:USF.COMPS:EGK:1,2010-09-02T15:54:00Z,27.6010,-82.7510,-0.083,1111122 
COMPS,ioos:station:USF.COMPS:EGK:1,2010-09-02T16:00:00Z,27.6010,-82.7510,-0.097,1111122 